Year,Month,Day,Hour,Minute,Value (Times are PST for temperature in C)
2019,04,24,00,00,9.40
2019,04,24,00,01,9.40
2019,04,24,00,02,9.40
2019,04,24,00,03,9.40
2019,04,24,00,04,9.40
2019,04,24,00,05,9.40
2019,04,24,00,06,9.40
2019,04,24,00,07,9.40
2019,04,24,00,08,9.40
2019,04,24,00,09,9.40
2019,04,24,00,10,9.40
2019,04,24,00,11,9.30
2019,04,24,00,12,9.30
2019,04,24,00,13,9.30
2019,04,24,00,14,9.30
2019,04,24,00,15,9.30
2019,04,24,00,16,9.30
2019,04,24,00,17,9.30
2019,04,24,00,18,9.30
2019,04,24,00,19,9.30
2019,04,24,00,20,9.30
2019,04,24,00,21,9.30
2019,04,24,00,22,9.30
2019,04,24,00,23,9.30
2019,04,24,00,24,9.30
2019,04,24,00,25,9.30
2019,04,24,00,26,9.30
2019,04,24,00,27,9.30
2019,04,24,00,28,9.30
2019,04,24,00,29,9.30
2019,04,24,00,30,9.30
2019,04,24,00,31,9.20
2019,04,24,00,32,9.20
2019,04,24,00,33,9.20
2019,04,24,00,34,9.20
2019,04,24,00,35,9.20
2019,04,24,00,36,9.20
2019,04,24,00,37,9.20
2019,04,24,00,38,9.20
2019,04,24,00,39,9.20
2019,04,24,00,40,9.20
2019,04,24,00,41,9.20
2019,04,24,00,42,9.20
2019,04,24,00,43,9.20
2019,04,24,00,44,9.20
2019,04,24,00,45,9.20
2019,04,24,00,46,9.20
2019,04,24,00,47,9.20
2019,04,24,00,48,9.20
2019,04,24,00,49,9.20
2019,04,24,00,50,9.20
2019,04,24,00,51,9.20
2019,04,24,00,52,9.10
2019,04,24,00,53,9.10
2019,04,24,00,54,9.10
2019,04,24,00,55,9.10
2019,04,24,00,56,9.10
2019,04,24,00,57,9.10
2019,04,24,00,58,9.10
2019,04,24,00,59,9.10
2019,04,24,01,00,9.10
2019,04,24,01,01,9.10
2019,04,24,01,02,9.10
2019,04,24,01,03,9.10
2019,04,24,01,04,9.10
2019,04,24,01,05,9.10
2019,04,24,01,06,9.10
2019,04,24,01,07,9.00
2019,04,24,01,08,9.00
2019,04,24,01,09,9.00
2019,04,24,01,10,9.00
2019,04,24,01,11,8.90
2019,04,24,01,12,8.90
2019,04,24,01,13,8.90
2019,04,24,01,14,8.90
2019,04,24,01,15,8.90
2019,04,24,01,16,8.90
2019,04,24,01,17,8.90
2019,04,24,01,18,8.90
2019,04,24,01,19,8.90
2019,04,24,01,20,8.80
2019,04,24,01,21,8.80
2019,04,24,01,22,8.80
2019,04,24,01,23,8.80
2019,04,24,01,24,8.80
2019,04,24,01,25,8.80
2019,04,24,01,26,8.80
2019,04,24,01,27,8.80
2019,04,24,01,28,8.80
2019,04,24,01,29,8.70
2019,04,24,01,30,8.70
2019,04,24,01,31,8.70
2019,04,24,01,32,8.70
2019,04,24,01,33,8.70
2019,04,24,01,34,8.60
2019,04,24,01,35,8.60
2019,04,24,01,36,8.60
2019,04,24,01,37,8.60
2019,04,24,01,38,8.50
2019,04,24,01,39,8.50
2019,04,24,01,40,8.50
2019,04,24,01,41,8.50
2019,04,24,01,42,8.40
2019,04,24,01,43,8.40
2019,04,24,01,44,8.40
2019,04,24,01,45,8.40
2019,04,24,01,46,8.40
2019,04,24,01,47,8.40
2019,04,24,01,48,8.40
2019,04,24,01,49,8.30
2019,04,24,01,50,8.30
2019,04,24,01,51,8.30
2019,04,24,01,52,8.30
2019,04,24,01,53,8.30
2019,04,24,01,54,8.40
2019,04,24,01,55,8.40
2019,04,24,01,56,8.40
2019,04,24,01,57,8.40
2019,04,24,01,58,8.40
2019,04,24,01,59,8.40
2019,04,24,02,00,8.40
2019,04,24,02,01,8.40
2019,04,24,02,02,8.40
2019,04,24,02,03,8.40
2019,04,24,02,04,8.30
2019,04,24,02,05,8.30
2019,04,24,02,06,8.30
2019,04,24,02,07,8.30
2019,04,24,02,08,8.20
2019,04,24,02,09,8.20
2019,04,24,02,10,8.20
2019,04,24,02,11,8.20
2019,04,24,02,12,8.10
2019,04,24,02,13,8.10
2019,04,24,02,14,8.10
2019,04,24,02,15,8.10
2019,04,24,02,16,8.00
2019,04,24,02,17,8.00
2019,04,24,02,18,7.90
2019,04,24,02,19,7.90
2019,04,24,02,20,7.90
2019,04,24,02,21,7.90
2019,04,24,02,22,7.90
2019,04,24,02,23,7.90
2019,04,24,02,24,7.90
2019,04,24,02,25,7.90
2019,04,24,02,26,7.80
2019,04,24,02,27,7.80
2019,04,24,02,28,7.80
2019,04,24,02,29,7.80
2019,04,24,02,30,7.80
2019,04,24,02,31,7.80
2019,04,24,02,32,7.80
2019,04,24,02,33,7.80
2019,04,24,02,34,7.70
2019,04,24,02,35,7.70
2019,04,24,02,36,7.70
2019,04,24,02,37,7.70
2019,04,24,02,38,7.70
2019,04,24,02,39,7.60
2019,04,24,02,40,7.60
2019,04,24,02,41,7.60
2019,04,24,02,42,7.60
2019,04,24,02,43,7.60
2019,04,24,02,44,7.60
2019,04,24,02,45,7.60
2019,04,24,02,46,7.60
2019,04,24,02,47,7.60
2019,04,24,02,48,7.60
2019,04,24,02,49,7.60
2019,04,24,02,50,7.60
2019,04,24,02,51,7.60
2019,04,24,02,52,7.60
2019,04,24,02,53,7.60
2019,04,24,02,54,7.60
2019,04,24,02,55,7.50
2019,04,24,02,56,7.50
2019,04,24,02,57,7.50
2019,04,24,02,58,7.40
2019,04,24,02,59,7.40
2019,04,24,03,00,7.30
2019,04,24,03,01,7.30
2019,04,24,03,02,7.30
2019,04,24,03,03,7.30
2019,04,24,03,04,7.30
2019,04,24,03,05,7.20
2019,04,24,03,06,7.20
2019,04,24,03,07,7.20
2019,04,24,03,08,7.20
2019,04,24,03,09,7.10
2019,04,24,03,10,7.10
2019,04,24,03,11,7.10
2019,04,24,03,12,7.00
2019,04,24,03,13,7.00
2019,04,24,03,14,7.00
2019,04,24,03,15,7.00
2019,04,24,03,16,6.90
2019,04,24,03,17,6.90
2019,04,24,03,18,6.90
2019,04,24,03,19,6.90
2019,04,24,03,20,6.80
2019,04,24,03,21,6.80
2019,04,24,03,22,6.80
2019,04,24,03,23,6.80
2019,04,24,03,24,6.80
2019,04,24,03,25,6.80
2019,04,24,03,26,6.80
2019,04,24,03,27,6.70
2019,04,24,03,28,6.70
2019,04,24,03,29,6.70
2019,04,24,03,30,6.70
2019,04,24,03,31,6.60
2019,04,24,03,32,6.60
2019,04,24,03,33,6.60
2019,04,24,03,34,6.60
2019,04,24,03,35,6.60
2019,04,24,03,36,6.60
2019,04,24,03,37,6.60
2019,04,24,03,38,6.60
2019,04,24,03,39,6.60
2019,04,24,03,40,6.60
2019,04,24,03,41,6.60
2019,04,24,03,42,6.60
2019,04,24,03,43,6.60
2019,04,24,03,44,6.60
2019,04,24,03,45,6.60
2019,04,24,03,46,6.60
2019,04,24,03,47,6.50
2019,04,24,03,48,6.60
2019,04,24,03,49,6.60
2019,04,24,03,50,6.60
2019,04,24,03,51,6.50
2019,04,24,03,52,6.50
2019,04,24,03,53,6.50
2019,04,24,03,54,6.50
2019,04,24,03,55,6.50
2019,04,24,03,56,6.50
2019,04,24,03,57,6.50
2019,04,24,03,58,6.50
2019,04,24,03,59,6.40
2019,04,24,04,00,6.40
2019,04,24,04,01,6.40
2019,04,24,04,02,6.40
2019,04,24,04,03,6.40
2019,04,24,04,04,6.40
2019,04,24,04,05,6.40
2019,04,24,04,06,6.40
2019,04,24,04,07,6.40
2019,04,24,04,08,6.40
2019,04,24,04,09,6.40
2019,04,24,04,10,6.50
2019,04,24,04,11,6.50
2019,04,24,04,12,6.50
2019,04,24,04,13,6.50
2019,04,24,04,14,6.60
2019,04,24,04,15,6.60
2019,04,24,04,16,6.60
2019,04,24,04,17,6.60
2019,04,24,04,18,6.60
2019,04,24,04,19,6.60
2019,04,24,04,20,6.60
2019,04,24,04,21,6.60
2019,04,24,04,22,6.60
2019,04,24,04,23,6.60
2019,04,24,04,24,6.60
2019,04,24,04,25,6.50
2019,04,24,04,26,6.50
2019,04,24,04,27,6.50
2019,04,24,04,28,6.50
2019,04,24,04,29,6.40
2019,04,24,04,30,6.40
2019,04,24,04,31,6.40
2019,04,24,04,32,6.40
2019,04,24,04,33,6.40
2019,04,24,04,34,6.40
2019,04,24,04,35,6.40
2019,04,24,04,36,6.40
2019,04,24,04,37,6.40
2019,04,24,04,38,6.40
2019,04,24,04,39,6.30
2019,04,24,04,40,6.30
2019,04,24,04,41,6.30
2019,04,24,04,42,6.40
2019,04,24,04,43,6.40
2019,04,24,04,44,6.40
2019,04,24,04,45,6.40
2019,04,24,04,46,6.40
2019,04,24,04,47,6.40
2019,04,24,04,48,6.40
2019,04,24,04,49,6.40
2019,04,24,04,50,6.40
2019,04,24,04,51,6.30
2019,04,24,04,52,6.30
2019,04,24,04,53,6.30
2019,04,24,04,54,6.30
2019,04,24,04,55,6.30
2019,04,24,04,56,6.30
2019,04,24,04,57,6.30
2019,04,24,04,58,6.30
2019,04,24,04,59,6.30
2019,04,24,05,00,6.30
2019,04,24,05,01,6.30
2019,04,24,05,02,6.30
2019,04,24,05,03,6.20
2019,04,24,05,04,6.20
2019,04,24,05,05,6.20
2019,04,24,05,06,6.20
2019,04,24,05,07,6.20
2019,04,24,05,08,6.20
2019,04,24,05,09,6.20
2019,04,24,05,10,6.20
2019,04,24,05,11,6.20
2019,04,24,05,12,6.20
2019,04,24,05,13,6.10
2019,04,24,05,14,6.10
2019,04,24,05,15,6.10
2019,04,24,05,16,6.10
2019,04,24,05,17,6.00
2019,04,24,05,18,6.00
2019,04,24,05,19,6.00
2019,04,24,05,20,5.90
2019,04,24,05,21,5.90
2019,04,24,05,22,5.90
2019,04,24,05,23,5.80
2019,04,24,05,24,5.80
2019,04,24,05,25,5.80
2019,04,24,05,26,5.80
2019,04,24,05,27,5.80
2019,04,24,05,28,5.80
2019,04,24,05,29,5.80
2019,04,24,05,30,5.70
2019,04,24,05,31,5.70
2019,04,24,05,32,5.70
2019,04,24,05,33,5.70
2019,04,24,05,34,5.60
2019,04,24,05,35,5.60
2019,04,24,05,36,5.60
2019,04,24,05,37,5.60
2019,04,24,05,38,5.60
2019,04,24,05,39,5.60
2019,04,24,05,40,5.50
2019,04,24,05,41,5.50
2019,04,24,05,42,5.50
2019,04,24,05,43,5.40
2019,04,24,05,44,5.40
2019,04,24,05,45,5.40
2019,04,24,05,46,5.40
2019,04,24,05,47,5.40
2019,04,24,05,48,5.40
2019,04,24,05,49,5.40
2019,04,24,05,50,5.40
2019,04,24,05,51,5.40
2019,04,24,05,52,5.40
2019,04,24,05,53,5.40
2019,04,24,05,54,5.40
2019,04,24,05,55,5.50
2019,04,24,05,56,5.50
2019,04,24,05,57,5.50
2019,04,24,05,58,5.50
2019,04,24,05,59,5.50
2019,04,24,06,00,5.40
2019,04,24,06,01,5.40
2019,04,24,06,02,5.30
2019,04,24,06,03,5.30
2019,04,24,06,04,5.30
2019,04,24,06,05,5.30
2019,04,24,06,06,5.30
2019,04,24,06,07,5.30
2019,04,24,06,08,5.20
2019,04,24,06,09,5.20
2019,04,24,06,10,5.20
2019,04,24,06,11,5.20
2019,04,24,06,12,5.10
2019,04,24,06,13,5.10
2019,04,24,06,14,5.10
2019,04,24,06,15,5.00
2019,04,24,06,16,5.00
2019,04,24,06,17,5.00
2019,04,24,06,18,5.00
2019,04,24,06,19,5.00
2019,04,24,06,20,5.00
2019,04,24,06,21,5.00
2019,04,24,06,22,5.00
2019,04,24,06,23,5.10
2019,04,24,06,24,5.10
2019,04,24,06,25,5.10
2019,04,24,06,26,5.10
2019,04,24,06,27,5.10
2019,04,24,06,28,5.10
2019,04,24,06,29,5.00
2019,04,24,06,30,5.00
2019,04,24,06,31,5.00
2019,04,24,06,32,5.00
2019,04,24,06,33,4.90
2019,04,24,06,34,4.90
2019,04,24,06,35,4.90
2019,04,24,06,36,4.90
2019,04,24,06,37,4.90
2019,04,24,06,38,4.90
2019,04,24,06,39,4.90
2019,04,24,06,40,4.80
2019,04,24,06,41,4.80
2019,04,24,06,42,4.80
2019,04,24,06,43,4.80
2019,04,24,06,44,4.80
2019,04,24,06,45,4.80
2019,04,24,06,46,4.80
2019,04,24,06,47,4.80
2019,04,24,06,48,4.80
2019,04,24,06,49,4.80
2019,04,24,06,50,4.90
2019,04,24,06,51,4.90
2019,04,24,06,52,4.90
2019,04,24,06,53,5.00
2019,04,24,06,54,5.00
2019,04,24,06,55,5.10
2019,04,24,06,56,5.10
2019,04,24,06,57,5.10
2019,04,24,06,58,5.10
2019,04,24,06,59,5.10
2019,04,24,07,00,5.10
2019,04,24,07,01,5.10
2019,04,24,07,02,5.10
2019,04,24,07,03,5.10
2019,04,24,07,04,5.10
2019,04,24,07,05,5.10
2019,04,24,07,06,5.10
2019,04,24,07,07,5.10
2019,04,24,07,08,5.10
2019,04,24,07,09,5.10
2019,04,24,07,10,5.00
2019,04,24,07,11,5.00
2019,04,24,07,12,5.00
2019,04,24,07,13,5.00
2019,04,24,07,14,5.00
2019,04,24,07,15,5.00
2019,04,24,07,16,5.00
2019,04,24,07,17,5.00
2019,04,24,07,18,5.00
2019,04,24,07,19,5.00
2019,04,24,07,20,5.10
2019,04,24,07,21,5.10
2019,04,24,07,22,5.10
2019,04,24,07,23,5.10
2019,04,24,07,24,5.10
2019,04,24,07,25,5.20
2019,04,24,07,26,5.20
2019,04,24,07,27,5.20
2019,04,24,07,28,5.20
2019,04,24,07,29,5.20
2019,04,24,07,30,5.20
2019,04,24,07,31,5.30
2019,04,24,07,32,5.30
2019,04,24,07,33,5.30
2019,04,24,07,34,5.30
2019,04,24,07,35,5.30
2019,04,24,07,36,5.40
2019,04,24,07,37,5.40
2019,04,24,07,38,5.40
2019,04,24,07,39,5.40
2019,04,24,07,40,5.40
2019,04,24,07,41,5.40
2019,04,24,07,42,5.50
2019,04,24,07,43,5.50
2019,04,24,07,44,5.50
2019,04,24,07,45,5.60
2019,04,24,07,46,5.60
2019,04,24,07,47,5.60
2019,04,24,07,48,5.70
2019,04,24,07,49,5.70
2019,04,24,07,50,5.70
2019,04,24,07,51,5.70
2019,04,24,07,52,5.70
2019,04,24,07,53,5.70
2019,04,24,07,54,5.80
2019,04,24,07,55,5.80
2019,04,24,07,56,5.80
2019,04,24,07,57,5.80
2019,04,24,07,58,5.80
2019,04,24,07,59,5.90
2019,04,24,08,00,5.90
2019,04,24,08,01,5.90
2019,04,24,08,02,6.00
2019,04,24,08,03,6.00
2019,04,24,08,04,6.00
2019,04,24,08,05,6.10
2019,04,24,08,06,6.10
2019,04,24,08,07,6.10
2019,04,24,08,08,6.10
2019,04,24,08,09,6.20
2019,04,24,08,10,6.20
2019,04,24,08,11,6.30
2019,04,24,08,12,6.40
2019,04,24,08,13,6.40
2019,04,24,08,14,6.50
2019,04,24,08,15,6.60
2019,04,24,08,16,6.70
2019,04,24,08,17,6.70
2019,04,24,08,18,6.80
2019,04,24,08,19,6.80
2019,04,24,08,20,6.80
2019,04,24,08,21,6.90
2019,04,24,08,22,6.90
2019,04,24,08,23,7.00
2019,04,24,08,24,7.10
2019,04,24,08,25,7.10
2019,04,24,08,26,7.20
2019,04,24,08,27,7.30
2019,04,24,08,28,7.30
2019,04,24,08,29,7.30
2019,04,24,08,30,7.30
2019,04,24,08,31,7.30
2019,04,24,08,32,7.30
2019,04,24,08,33,7.30
2019,04,24,08,34,7.30
2019,04,24,08,35,7.40
2019,04,24,08,36,7.40
2019,04,24,08,37,7.40
2019,04,24,08,38,7.50
2019,04,24,08,39,7.50
2019,04,24,08,40,7.60
2019,04,24,08,41,7.60
2019,04,24,08,42,7.60
2019,04,24,08,43,7.60
2019,04,24,08,44,7.70
2019,04,24,08,45,7.70
2019,04,24,08,46,7.80
2019,04,24,08,47,7.80
2019,04,24,08,48,7.90
2019,04,24,08,49,7.90
2019,04,24,08,50,8.00
2019,04,24,08,51,8.10
2019,04,24,08,52,8.10
2019,04,24,08,53,8.10
2019,04,24,08,54,8.10
2019,04,24,08,55,8.10
2019,04,24,08,56,8.10
2019,04,24,08,57,8.10
2019,04,24,08,58,8.20
2019,04,24,08,59,8.30
2019,04,24,09,00,8.40
2019,04,24,09,01,8.50
2019,04,24,09,02,8.60
2019,04,24,09,03,8.60
2019,04,24,09,04,8.70
2019,04,24,09,05,8.70
2019,04,24,09,06,8.80
2019,04,24,09,07,8.80
2019,04,24,09,08,8.90
2019,04,24,09,09,9.00
2019,04,24,09,10,9.00
2019,04,24,09,11,9.10
2019,04,24,09,12,9.10
2019,04,24,09,13,9.10
2019,04,24,09,14,9.20
2019,04,24,09,15,9.20
2019,04,24,09,16,9.30
2019,04,24,09,17,9.30
2019,04,24,09,18,9.30
2019,04,24,09,19,9.40
2019,04,24,09,20,9.50
2019,04,24,09,21,9.50
2019,04,24,09,22,9.50
2019,04,24,09,23,9.50
2019,04,24,09,24,9.50
2019,04,24,09,25,9.50
2019,04,24,09,26,9.60
2019,04,24,09,27,9.70
2019,04,24,09,28,9.80
2019,04,24,09,29,9.90
2019,04,24,09,30,10.00
2019,04,24,09,31,10.20
2019,04,24,09,32,10.20
2019,04,24,09,33,10.30
2019,04,24,09,34,10.40
2019,04,24,09,35,10.40
2019,04,24,09,36,10.50
2019,04,24,09,37,10.60
2019,04,24,09,38,10.60
2019,04,24,09,39,10.70
2019,04,24,09,40,10.70
2019,04,24,09,41,10.70
2019,04,24,09,42,10.70
2019,04,24,09,43,10.80
2019,04,24,09,44,10.80
2019,04,24,09,45,10.80
2019,04,24,09,46,10.80
2019,04,24,09,47,10.90
2019,04,24,09,48,10.90
2019,04,24,09,49,10.90
2019,04,24,09,50,10.90
2019,04,24,09,51,10.80
2019,04,24,09,52,10.80
2019,04,24,09,53,10.90
2019,04,24,09,54,10.90
2019,04,24,09,55,11.00
2019,04,24,09,56,11.00
2019,04,24,09,57,11.10
2019,04,24,09,58,11.20
2019,04,24,09,59,11.30
2019,04,24,10,00,11.30
2019,04,24,10,01,11.50
2019,04,24,10,02,11.60
2019,04,24,10,03,11.80
2019,04,24,10,04,11.90
2019,04,24,10,05,12.00
2019,04,24,10,06,12.00
2019,04,24,10,07,12.00
2019,04,24,10,08,11.90
2019,04,24,10,09,11.80
2019,04,24,10,10,11.80
2019,04,24,10,11,11.80
2019,04,24,10,12,11.80
2019,04,24,10,13,11.80
2019,04,24,10,14,11.90
2019,04,24,10,15,12.00
2019,04,24,10,16,12.20
2019,04,24,10,17,12.20
2019,04,24,10,18,12.30
2019,04,24,10,19,12.40
2019,04,24,10,20,12.40
2019,04,24,10,21,12.50
2019,04,24,10,22,12.50
2019,04,24,10,23,12.50
2019,04,24,10,24,12.50
2019,04,24,10,25,12.50
2019,04,24,10,26,12.50
2019,04,24,10,27,12.40
2019,04,24,10,28,12.30
2019,04,24,10,29,12.20
2019,04,24,10,30,12.10
2019,04,24,10,31,12.10
2019,04,24,10,32,12.20
2019,04,24,10,33,12.20
2019,04,24,10,34,12.30
2019,04,24,10,35,12.40
2019,04,24,10,36,12.50
2019,04,24,10,37,12.50
2019,04,24,10,38,12.60
2019,04,24,10,39,12.60
2019,04,24,10,40,12.60
2019,04,24,10,41,12.60
2019,04,24,10,42,12.70
2019,04,24,10,43,12.70
2019,04,24,10,44,12.70
2019,04,24,10,45,12.70
2019,04,24,10,46,12.70
2019,04,24,10,47,12.70
2019,04,24,10,48,12.70
2019,04,24,10,49,12.80
2019,04,24,10,50,12.90
2019,04,24,10,51,12.90
2019,04,24,10,52,12.90
2019,04,24,10,53,13.00
2019,04,24,10,54,13.00
2019,04,24,10,55,13.00
2019,04,24,10,56,13.00
2019,04,24,10,57,12.80
2019,04,24,10,58,12.70
2019,04,24,10,59,12.60
2019,04,24,11,00,12.60
2019,04,24,11,01,12.70
2019,04,24,11,02,12.70
2019,04,24,11,03,12.70
2019,04,24,11,04,12.70
2019,04,24,11,05,12.80
2019,04,24,11,06,12.80
2019,04,24,11,07,12.90
2019,04,24,11,08,13.00
2019,04,24,11,09,13.10
2019,04,24,11,10,13.20
2019,04,24,11,11,13.20
2019,04,24,11,12,13.30
2019,04,24,11,13,13.30
2019,04,24,11,14,13.30
2019,04,24,11,15,13.20
2019,04,24,11,16,13.20
2019,04,24,11,17,13.20
2019,04,24,11,18,13.20
2019,04,24,11,19,13.20
2019,04,24,11,20,13.20
2019,04,24,11,21,13.30
2019,04,24,11,22,13.40
2019,04,24,11,23,13.40
2019,04,24,11,24,13.50
2019,04,24,11,25,13.60
2019,04,24,11,26,13.70
2019,04,24,11,27,13.80
2019,04,24,11,28,13.80
2019,04,24,11,29,13.90
2019,04,24,11,30,13.90
2019,04,24,11,31,13.90
2019,04,24,11,32,13.80
2019,04,24,11,33,13.80
2019,04,24,11,34,13.80
2019,04,24,11,35,13.80
2019,04,24,11,36,13.80
2019,04,24,11,37,13.70
2019,04,24,11,38,13.60
2019,04,24,11,39,13.50
2019,04,24,11,40,13.40
2019,04,24,11,41,13.40
2019,04,24,11,42,13.60
2019,04,24,11,43,13.70
2019,04,24,11,44,13.80
2019,04,24,11,45,13.80
2019,04,24,11,46,13.70
2019,04,24,11,47,13.70
2019,04,24,11,48,13.80
2019,04,24,11,49,13.90
2019,04,24,11,50,13.90
2019,04,24,11,51,13.90
2019,04,24,11,52,13.80
2019,04,24,11,53,13.80
2019,04,24,11,54,13.80
2019,04,24,11,55,13.80
2019,04,24,11,56,13.80
2019,04,24,11,57,13.80
2019,04,24,11,58,13.70
2019,04,24,11,59,13.70
2019,04,24,12,00,13.60
2019,04,24,12,01,13.60
2019,04,24,12,02,13.60
2019,04,24,12,03,13.70
2019,04,24,12,04,13.60
2019,04,24,12,05,13.70
2019,04,24,12,06,13.80
2019,04,24,12,07,13.90
2019,04,24,12,08,13.90
2019,04,24,12,09,13.80
2019,04,24,12,10,13.80
2019,04,24,12,11,13.90
2019,04,24,12,12,13.90
2019,04,24,12,13,14.00
2019,04,24,12,14,14.00
2019,04,24,12,15,14.10
2019,04,24,12,16,14.10
2019,04,24,12,17,14.20
2019,04,24,12,18,14.20
2019,04,24,12,19,14.30
2019,04,24,12,20,14.30
2019,04,24,12,21,14.30
2019,04,24,12,22,14.30
2019,04,24,12,23,14.40
2019,04,24,12,24,14.50
2019,04,24,12,25,14.60
2019,04,24,12,26,14.60
2019,04,24,12,27,14.60
2019,04,24,12,28,14.50
2019,04,24,12,29,14.40
2019,04,24,12,30,14.40
2019,04,24,12,31,14.30
2019,04,24,12,32,14.30
2019,04,24,12,33,14.30
2019,04,24,12,34,14.40
2019,04,24,12,35,14.40
2019,04,24,12,36,14.30
2019,04,24,12,37,14.30
2019,04,24,12,38,14.50
2019,04,24,12,39,14.60
2019,04,24,12,40,14.60
2019,04,24,12,41,14.50
2019,04,24,12,42,14.40
2019,04,24,12,43,14.30
2019,04,24,12,44,14.30
2019,04,24,12,45,14.40
2019,04,24,12,46,14.30
2019,04,24,12,47,14.30
2019,04,24,12,48,14.30
2019,04,24,12,49,14.30
2019,04,24,12,50,14.20
2019,04,24,12,51,14.10
2019,04,24,12,52,14.10
2019,04,24,12,53,14.00
2019,04,24,12,54,14.10
2019,04,24,12,55,14.20
2019,04,24,12,56,14.20
2019,04,24,12,57,14.20
2019,04,24,12,58,14.20
2019,04,24,12,59,14.20
2019,04,24,13,00,14.10
2019,04,24,13,01,14.20
2019,04,24,13,02,14.30
2019,04,24,13,03,14.50
2019,04,24,13,04,14.70
2019,04,24,13,05,14.80
2019,04,24,13,06,14.90
2019,04,24,13,07,14.90
2019,04,24,13,08,14.80
2019,04,24,13,09,14.80
2019,04,24,13,10,14.80
2019,04,24,13,11,14.80
2019,04,24,13,12,14.80
2019,04,24,13,13,14.80
2019,04,24,13,14,14.80
2019,04,24,13,15,14.80
2019,04,24,13,16,14.80
2019,04,24,13,17,14.80
2019,04,24,13,18,14.70
2019,04,24,13,19,14.60
2019,04,24,13,20,14.40
2019,04,24,13,21,14.20
2019,04,24,13,22,14.10
2019,04,24,13,23,14.10
2019,04,24,13,24,14.10
2019,04,24,13,25,14.10
2019,04,24,13,26,14.10
2019,04,24,13,27,14.10
2019,04,24,13,28,14.10
2019,04,24,13,29,14.10
2019,04,24,13,30,14.10
2019,04,24,13,31,14.20
2019,04,24,13,32,14.20
2019,04,24,13,33,14.20
2019,04,24,13,34,14.20
2019,04,24,13,35,14.20
2019,04,24,13,36,14.20
2019,04,24,13,37,14.10
2019,04,24,13,38,14.10
2019,04,24,13,39,14.10
2019,04,24,13,40,14.00
2019,04,24,13,41,14.00
2019,04,24,13,42,14.00
2019,04,24,13,43,14.10
2019,04,24,13,44,14.00
2019,04,24,13,45,14.10
2019,04,24,13,46,14.20
2019,04,24,13,47,14.20
2019,04,24,13,48,14.40
2019,04,24,13,49,14.50
2019,04,24,13,50,14.60
2019,04,24,13,51,14.60
2019,04,24,13,52,14.50
2019,04,24,13,53,14.40
2019,04,24,13,54,14.30
2019,04,24,13,55,14.20
2019,04,24,13,56,14.20
2019,04,24,13,57,14.30
2019,04,24,13,58,14.30
2019,04,24,13,59,14.40
2019,04,24,14,00,14.50
2019,04,24,14,01,14.60
2019,04,24,14,02,14.70
2019,04,24,14,03,14.80
2019,04,24,14,04,14.80
2019,04,24,14,05,14.80
2019,04,24,14,06,14.90
2019,04,24,14,07,15.10
2019,04,24,14,08,15.20
2019,04,24,14,09,15.20
2019,04,24,14,10,15.20
2019,04,24,14,11,15.30
2019,04,24,14,12,15.30
2019,04,24,14,13,15.30
2019,04,24,14,14,15.30
2019,04,24,14,15,15.30
2019,04,24,14,16,15.20
2019,04,24,14,17,15.10
2019,04,24,14,18,15.10
2019,04,24,14,19,15.10
2019,04,24,14,20,15.10
2019,04,24,14,21,15.10
2019,04,24,14,22,15.10
2019,04,24,14,23,15.10
2019,04,24,14,24,15.00
2019,04,24,14,25,15.00
2019,04,24,14,26,14.90
2019,04,24,14,27,14.90
2019,04,24,14,28,14.80
2019,04,24,14,29,14.70
2019,04,24,14,30,14.70
2019,04,24,14,31,14.70
2019,04,24,14,32,14.70
2019,04,24,14,33,14.60
2019,04,24,14,34,14.70
2019,04,24,14,35,14.70
2019,04,24,14,36,14.70
2019,04,24,14,37,14.70
2019,04,24,14,38,14.70
2019,04,24,14,39,14.80
2019,04,24,14,40,14.80
2019,04,24,14,41,14.80
2019,04,24,14,42,14.90
2019,04,24,14,43,14.90
2019,04,24,14,44,14.90
2019,04,24,14,45,14.90
2019,04,24,14,46,14.80
2019,04,24,14,47,14.60
2019,04,24,14,48,14.40
2019,04,24,14,49,14.30
2019,04,24,14,50,14.30
2019,04,24,14,51,14.40
2019,04,24,14,52,14.40
2019,04,24,14,53,14.40
2019,04,24,14,54,14.40
2019,04,24,14,55,14.40
2019,04,24,14,56,14.30
2019,04,24,14,57,14.30
2019,04,24,14,58,14.40
2019,04,24,14,59,14.50
2019,04,24,15,00,14.50
2019,04,24,15,01,14.50
2019,04,24,15,02,14.40
2019,04,24,15,03,14.30
2019,04,24,15,04,14.40
2019,04,24,15,05,14.40
2019,04,24,15,06,14.50
2019,04,24,15,07,14.60
2019,04,24,15,08,14.60
2019,04,24,15,09,14.40
2019,04,24,15,10,14.30
2019,04,24,15,11,14.30
2019,04,24,15,12,14.40
2019,04,24,15,13,14.40
2019,04,24,15,14,14.50
2019,04,24,15,15,14.50
2019,04,24,15,16,14.60
2019,04,24,15,17,14.50
2019,04,24,15,18,14.40
2019,04,24,15,19,14.30
2019,04,24,15,20,14.20
2019,04,24,15,21,14.30
2019,04,24,15,22,14.40
2019,04,24,15,23,14.50
2019,04,24,15,24,14.60
2019,04,24,15,25,14.60
2019,04,24,15,26,14.60
2019,04,24,15,27,14.60
2019,04,24,15,28,14.70
2019,04,24,15,29,14.70
2019,04,24,15,30,14.60
2019,04,24,15,31,14.60
2019,04,24,15,32,14.70
2019,04,24,15,33,14.70
2019,04,24,15,34,14.70
2019,04,24,15,35,14.70
2019,04,24,15,36,14.60
2019,04,24,15,37,14.50
2019,04,24,15,38,14.30
2019,04,24,15,39,14.20
2019,04,24,15,40,14.10
2019,04,24,15,41,14.00
2019,04,24,15,42,13.90
2019,04,24,15,43,13.80
2019,04,24,15,44,13.80
2019,04,24,15,45,13.90
2019,04,24,15,46,13.90
2019,04,24,15,47,13.90
2019,04,24,15,48,13.90
2019,04,24,15,49,14.00
2019,04,24,15,50,14.00
2019,04,24,15,51,14.10
2019,04,24,15,52,14.20
2019,04,24,15,53,14.30
2019,04,24,15,54,14.30
2019,04,24,15,55,14.30
2019,04,24,15,56,14.20
2019,04,24,15,57,14.20
2019,04,24,15,58,14.20
2019,04,24,15,59,14.20
2019,04,24,16,00,14.30
2019,04,24,16,01,14.30
2019,04,24,16,02,14.30
2019,04,24,16,03,14.30
2019,04,24,16,04,14.40
2019,04,24,16,05,14.40
2019,04,24,16,06,14.40
2019,04,24,16,07,14.40
2019,04,24,16,08,14.40
2019,04,24,16,09,14.40
2019,04,24,16,10,14.40
2019,04,24,16,11,14.40
2019,04,24,16,12,14.40
2019,04,24,16,13,14.30
2019,04,24,16,14,14.30
2019,04,24,16,15,14.40
2019,04,24,16,16,14.50
2019,04,24,16,17,14.50
2019,04,24,16,18,14.50
2019,04,24,16,19,14.40
2019,04,24,16,20,14.40
2019,04,24,16,21,14.30
2019,04,24,16,22,14.30
2019,04,24,16,23,14.20
2019,04,24,16,24,14.20
2019,04,24,16,25,14.10
2019,04,24,16,26,14.00
2019,04,24,16,27,14.00
2019,04,24,16,28,14.10
2019,04,24,16,29,14.20
2019,04,24,16,30,14.30
2019,04,24,16,31,14.30
2019,04,24,16,32,14.20
2019,04,24,16,33,14.20
2019,04,24,16,34,14.20
2019,04,24,16,35,14.20
2019,04,24,16,36,14.20
2019,04,24,16,37,14.30
2019,04,24,16,38,14.40
2019,04,24,16,39,14.40
2019,04,24,16,40,14.40
2019,04,24,16,41,14.40
2019,04,24,16,42,14.40
2019,04,24,16,43,14.30
2019,04,24,16,44,14.30
2019,04,24,16,45,14.20
2019,04,24,16,46,14.30
2019,04,24,16,47,14.30
2019,04,24,16,48,14.30
2019,04,24,16,49,14.30
2019,04,24,16,50,14.30
2019,04,24,16,51,14.20
2019,04,24,16,52,14.10
2019,04,24,16,53,14.00
2019,04,24,16,54,14.10
2019,04,24,16,55,14.10
2019,04,24,16,56,14.10
2019,04,24,16,57,14.20
2019,04,24,16,58,14.20
2019,04,24,16,59,14.20
2019,04,24,17,00,14.20
2019,04,24,17,01,14.20
2019,04,24,17,02,14.20
2019,04,24,17,03,14.20
2019,04,24,17,04,14.10
2019,04,24,17,05,14.10
2019,04,24,17,06,14.10
2019,04,24,17,07,14.00
2019,04,24,17,08,14.00
2019,04,24,17,09,14.00
2019,04,24,17,10,14.10
2019,04,24,17,11,14.10
2019,04,24,17,12,14.10
2019,04,24,17,13,14.10
2019,04,24,17,14,14.10
2019,04,24,17,15,14.10
2019,04,24,17,16,14.20
2019,04,24,17,17,14.20
2019,04,24,17,18,14.10
2019,04,24,17,19,14.00
2019,04,24,17,20,14.00
2019,04,24,17,21,13.90
2019,04,24,17,22,14.00
2019,04,24,17,23,14.00
2019,04,24,17,24,14.10
2019,04,24,17,25,14.10
2019,04,24,17,26,14.10
2019,04,24,17,27,14.10
2019,04,24,17,28,14.10
2019,04,24,17,29,14.20
2019,04,24,17,30,14.10
2019,04,24,17,31,14.00
2019,04,24,17,32,14.00
2019,04,24,17,33,14.00
2019,04,24,17,34,14.00
2019,04,24,17,35,13.90
2019,04,24,17,36,13.90
2019,04,24,17,37,13.90
2019,04,24,17,38,13.90
2019,04,24,17,39,13.90
2019,04,24,17,40,14.00
2019,04,24,17,41,14.00
2019,04,24,17,42,14.10
2019,04,24,17,43,14.10
2019,04,24,17,44,14.20